Tracking 20036 objects as of 21-Nov-2019
Live streaming from Space Station
objects crossing your sky now

CZ-4B R/B

Track CZ-4B R/B now!
10-day predictions


NORAD ID: 41635
Int'l Code: 2016-043B
Perigee: 330.6 km
Apogee: 501.8 km
Inclination: 75.0 °
Period: 92.7 minutes
Semi major axis: 6787 km
RCS: Unknown
Launch date: June 29, 2016
Source: People's Republic of China (PRC)
Launch site: Jiuquan Satellite Launch Center, China (JSC)

Note: This is a ROCKET BODY
aabbcc
Your satellite tracking list
Your tracking list is empty




NASA's NSSDC Master Catalog

Two Line Element Set (TLE):
1 41635U 16043B   19325.21400220  .00010282  00000-0  11882-3 0  9990
2 41635  74.9747 243.5349 0126127   0.8288 359.3114 15.52632271191285
Source of the keplerian elements: AFSPC